Date String (YYYY-MM-DD hh:mm:ss) UTC,Instrument flags,absolute air pressure of the measurement (hPa),sample flow rate (lpm),inlet stack bypass flow (lpm),air temperature of the measurement (°C),ambient temperature measured by the external sensor (°C),aerosol sample conditioner tube jacket temperature (°C),OPC LED temperature (°C),internal box temperature (°C),relative humidity of the measurement (%),span deviation,mass concentration of particles derived from Lorenz-Mie calculation of OPC scattering (μg/m³),mass concentration of particles derived from Lorenz-Mie calculation of OPC scattering (μg/m³),mass concentration of particles derived from Lorenz-Mie calculation of OPC scattering (μg/m³)
DateTimeUTC,F1_M11,P_M11,Q1_M11,Q2_M11,T1_M11,T2_M11,T3_M11,T4_M11,T5_M11,U1_M11,ZSPAN_M11,X2_M11,X0_M11,X1_M11
2023-10-18 14:00:00,SystemResetWarning,0832.6,5.00,000.00,028.0,026.5,000.0,036.4,029.7,13.9,0000.0,0003.83,0015.46,0002.04
2023-10-18 14:01:00,SystemResetWarning,0832.7,5.00,000.00,028.0,026.5,000.0,036.4,029.6,14.0,0000.0,0003.79,0014.09,0002.04
2023-10-18 14:02:00,SystemResetWarning,0832.6,4.99,000.00,028.0,026.5,000.0,036.4,029.6,14.0,0000.0,0003.75,0014.36,0002.03
2023-10-18 14:03:00,SystemResetWarning,0832.6,5.00,000.00,028.0,026.6,000.0,036.4,029.6,13.9,0000.0,0003.74,0013.95,0002.03
2023-10-18 14:04:00,SystemResetWarning,0832.7,5.00,000.00,028.0,026.6,000.0,036.4,029.7,14.2,0000.0,0003.77,0013.58,0002.04
2023-10-18 14:05:00,SystemResetWarning,0832.7,5.01,000.00,028.0,026.6,000.0,036.4,029.7,14.2,0000.0,0003.78,0013.63,0002.03
2023-10-18 14:06:00,SystemResetWarning,0832.7,5.00,000.00,028.0,026.6,000.0,036.4,029.7,14.3,0000.0,0003.76,0014.62,0002.04
2023-10-18 14:07:00,SystemResetWarning,0832.7,5.01,000.00,028.1,026.6,000.0,036.4,029.7,14.6,0000.0,0003.77,0014.94,0002.04
2023-10-18 14:08:00,SystemResetWarning,0832.7,5.00,000.00,028.1,026.6,000.0,036.4,029.7,14.7,0000.0,0003.75,0014.82,0002.02
2023-10-18 14:09:00,SystemResetWarning,0832.6,5.00,000.00,028.1,026.6,000.0,036.5,029.7,14.8,0000.0,0003.73,0015.19,0002.02
2023-10-18 14:10:00,SystemResetWarning,0832.6,5.00,000.00,028.1,026.7,000.0,036.5,029.7,14.8,0000.0,0003.71,0015.04,0002.01
2023-10-18 14:11:00,SystemResetWarning,0832.6,5.00,000.00,028.1,026.7,000.0,036.5,029.8,14.5,0000.0,0003.66,0014.60,0002.02
2023-10-18 14:12:00,SystemResetWarning,0832.6,5.00,000.00,028.1,026.7,000.0,036.5,029.8,14.0,0000.0,0003.68,0015.04,0002.02
2023-10-18 14:13:00,SystemResetWarning,0832.6,5.00,000.00,028.1,026.7,000.0,036.5,029.8,13.9,0000.0,0003.70,0014.30,0002.03
2023-10-18 14:14:00,SystemResetWarning,0832.7,4.99,000.00,028.1,026.7,000.0,036.5,029.8,14.2,0000.0,0003.69,0014.82,0002.02
2023-10-18 14:15:00,SystemResetWarning,0832.7,5.00,000.00,028.1,026.7,000.0,036.5,029.8,14.1,0000.0,0003.70,0015.24,0002.01
2023-10-18 14:16:00,SystemResetWarning,0832.7,4.99,000.00,028.1,026.7,000.0,036.5,029.8,14.2,0000.0,0003.69,0015.16,0002.00
2023-10-18 14:17:00,SystemResetWarning,0832.7,5.00,000.00,028.1,026.7,000.0,036.5,029.8,14.3,0000.0,0003.70,0014.39,0001.97
2023-10-18 14:18:00,SystemResetWarning,0832.7,5.00,000.00,028.1,026.8,000.0,036.5,029.8,14.0,0000.0,0003.68,0013.00,0001.95
2023-10-18 14:19:00,SystemResetWarning,0832.7,5.01,000.00,028.2,026.8,000.0,036.5,029.8,13.9,0000.0,0003.70,0012.92,0001.94
2023-10-18 14:20:00,SystemResetWarning,0832.7,5.01,000.00,028.2,026.8,000.0,036.5,029.8,13.5,0000.0,0003.72,0013.06,0001.92
2023-10-18 14:21:00,SystemResetWarning,0832.6,5.00,000.00,028.2,026.8,000.0,036.5,029.9,13.2,0000.0,0003.71,0013.39,0001.90
2023-10-18 14:22:00,SystemResetWarning,0832.7,4.99,000.00,028.2,026.8,000.0,036.6,029.9,13.4,0000.0,0003.69,0013.40,0001.89
2023-10-18 14:23:00,SystemResetWarning,0832.7,4.99,000.00,028.2,026.9,000.0,036.6,029.9,13.3,0000.0,0003.69,0013.76,0001.87
2023-10-18 14:24:00,SystemResetWarning,0832.7,5.00,000.00,028.2,026.9,000.0,036.6,029.9,13.4,0000.0,0003.68,0014.31,0001.86
2023-10-18 14:25:00,SystemResetWarning,0832.8,5.00,000.00,028.2,026.9,000.0,036.6,029.9,13.4,0000.0,0003.63,0014.20,0001.84
2023-10-18 14:26:00,SystemResetWarning,0832.8,5.00,000.00,028.2,026.9,000.0,036.6,029.9,13.3,0000.0,0003.58,0013.91,0001.80
2023-10-18 14:27:00,SystemResetWarning,0832.8,5.00,000.00,028.2,026.9,000.0,036.6,029.9,13.3,0000.0,0003.56,0014.29,0001.80
2023-10-18 14:28:00,SystemResetWarning,0832.8,5.00,000.00,028.3,026.9,000.0,036.6,030.0,13.5,0000.0,0003.50,0013.95,0001.79
2023-10-18 14:29:00,SystemResetWarning,0832.8,5.01,000.00,028.3,026.9,000.0,036.6,030.0,13.7,0000.0,0003.47,0013.92,0001.79
2023-10-18 14:30:00,SystemResetWarning,0832.8,5.00,000.00,028.3,027.0,000.0,036.6,029.9,13.8,0000.0,0003.44,0013.80,0001.78
2023-10-18 14:31:00,SystemResetWarning,0832.8,5.00,000.00,028.3,027.0,000.0,036.7,030.0,13.6,0000.0,0003.42,0013.12,0001.77
2023-10-18 14:32:00,SystemResetWarning,0832.8,5.00,000.00,028.3,027.0,000.0,036.7,030.0,13.5,0000.0,0003.38,0012.20,0001.75
2023-10-18 14:33:00,SystemResetWarning,0832.8,5.00,000.00,028.3,027.0,000.0,036.7,030.0,13.7,0000.0,0003.32,0011.98,0001.74
2023-10-18 14:34:00,SystemResetWarning,0832.7,4.99,000.00,028.3,027.0,000.0,036.7,030.0,13.6,0000.0,0003.27,0011.50,0001.72
2023-10-18 14:35:00,SystemResetWarning,0832.8,5.00,000.00,028.3,027.0,000.0,036.7,030.0,13.4,0000.0,0003.19,0011.47,0001.68
2023-10-18 14:36:00,SystemResetWarning,0832.8,5.00,000.00,028.4,027.1,000.0,036.7,030.0,13.5,0000.0,0003.18,0011.08,0001.64
2023-10-18 14:37:00,SystemResetWarning,0832.8,5.00,000.00,028.4,027.1,000.0,036.7,030.0,13.4,0000.0,0003.18,0010.80,0001.64
2023-10-18 14:38:00,SystemResetWarning,0832.8,5.00,000.00,028.4,027.1,000.0,036.7,030.1,13.4,0000.0,0003.14,0010.37,0001.62
2023-10-18 14:39:00,SystemResetWarning,0832.8,5.01,000.00,028.4,027.1,000.0,036.7,030.1,13.4,0000.0,0003.14,0010.31,0001.58
2023-10-18 14:40:00,SystemResetWarning,0832.9,5.00,000.00,028.4,027.1,000.0,036.7,030.1,13.6,0000.0,0003.11,0010.02,0001.56
2023-10-18 14:41:00,SystemResetWarning,0833.0,5.00,000.00,028.4,027.1,000.0,036.8,030.1,13.7,0000.0,0003.11,0009.67,0001.55
2023-10-18 14:42:00,SystemResetWarning,0832.9,5.00,000.00,028.4,027.1,000.0,036.8,030.1,13.8,0000.0,0003.06,0010.10,0001.53
2023-10-18 14:43:00,SystemResetWarning,0832.8,5.00,000.00,028.4,027.2,000.0,036.8,030.1,13.7,0000.0,0002.99,0010.64,0001.51
2023-10-18 14:44:00,SystemResetWarning,0832.9,5.00,000.00,028.5,027.2,000.0,036.8,030.1,13.7,0000.0,0003.06,0010.77,0001.51
2023-10-18 14:45:00,SystemResetWarning,0833.3,5.00,000.00,028.5,027.2,000.0,036.8,030.1,13.7,0000.0,0003.10,0010.54,0001.51
2023-10-18 14:46:00,SystemResetWarning,0833.0,5.00,000.00,028.5,027.2,000.0,036.8,030.2,13.8,0000.0,0003.12,0009.43,0001.53
2023-10-18 14:47:00,SystemResetWarning,0833.0,5.00,000.00,028.5,027.2,000.0,036.8,030.2,13.8,0000.0,0003.15,0009.41,0001.55
2023-10-18 14:48:00,SystemResetWarning,0832.9,5.00,000.00,028.5,027.3,000.0,036.9,030.2,13.8,0000.0,0003.16,0010.62,0001.56
2023-10-18 14:49:00,SystemResetWarning,0833.0,5.00,000.00,028.5,027.3,000.0,036.9,030.2,13.6,0000.0,0003.18,0010.76,0001.57
2023-10-18 14:50:00,SystemResetWarning,0833.1,5.00,000.00,028.5,027.3,000.0,036.9,030.2,13.7,0000.0,0003.18,0010.40,0001.58
2023-10-18 14:51:00,SystemResetWarning,0832.9,5.00,000.00,028.6,027.3,000.0,036.9,030.2,14.0,0000.0,0003.24,0010.61,0001.59
2023-10-18 14:52:00,SystemResetWarning,0833.2,5.00,000.00,028.6,027.3,000.0,036.9,030.2,14.0,0000.0,0003.24,0011.28,0001.59
2023-10-18 14:53:00,SystemResetWarning,0833.3,5.00,000.00,028.6,027.3,000.0,036.9,030.2,13.9,0000.0,0003.27,0011.42,0001.60
2023-10-18 14:54:00,SystemResetWarning,0833.1,5.00,000.00,028.6,027.4,000.0,036.9,030.3,14.0,0000.0,0003.35,0011.49,0001.62
2023-10-18 14:55:00,SystemResetWarning,0833.3,5.00,000.00,028.6,027.4,000.0,037.0,030.3,14.1,0000.0,0003.35,0011.98,0001.61
2023-10-18 14:56:00,SystemResetWarning,0833.0,5.00,000.00,028.6,027.4,000.0,037.0,030.3,14.1,0000.0,0003.35,0012.55,0001.59
2023-10-18 14:57:00,SystemResetWarning,0833.2,5.00,000.00,028.6,027.4,000.0,037.0,030.3,14.2,0000.0,0003.32,0012.81,0001.58
2023-10-18 14:58:00,SystemResetWarning,0833.3,5.01,000.00,028.7,027.4,000.0,037.0,030.3,14.1,0000.0,0003.28,0013.57,0001.54
2023-10-18 14:59:00,SystemResetWarning,0833.2,5.00,000.00,028.7,027.4,000.0,037.0,030.3,14.1,0000.0,0003.24,0012.36,0001.53
